TimeCDT,TemperatureF,Dew PointF,Humidity,Sea Level PressureIn,VisibilityMPH,Wind Direction,Wind SpeedMPH,Gust SpeedMPH,PrecipitationIn,Events,Conditions,WindDirDegrees,DateUTC
12:51 AM,75.9,70.0,82,30.06,10.0,SSE,8.1,-,N/A,,Clear,160,2012-10-05 05:51:00
1:51 AM,73.0,69.1,87,30.05,10.0,SSE,6.9,-,N/A,,Clear,160,2012-10-05 06:51:00
2:51 AM,72.0,69.1,91,30.05,10.0,SSE,6.9,-,N/A,,Clear,150,2012-10-05 07:51:00
3:51 AM,72.0,69.1,91,30.04,10.0,SSE,5.8,-,N/A,,Clear,150,2012-10-05 08:51:00
4:51 AM,73.0,69.1,87,30.04,10.0,SSE,8.1,-,N/A,,Partly Cloudy,160,2012-10-05 09:51:00
5:51 AM,72.0,69.1,91,30.05,10.0,SSE,6.9,-,N/A,,Partly Cloudy,160,2012-10-05 10:51:00
6:51 AM,71.1,68.0,90,30.06,10.0,SSE,5.8,-,N/A,,Partly Cloudy,160,2012-10-05 11:51:00
7:51 AM,71.1,68.0,90,30.07,10.0,Calm,Calm,-,N/A,,Partly Cloudy,0,2012-10-05 12:51:00
8:51 AM,75.9,72.0,87,30.09,10.0,SSW,3.5,-,N/A,,Partly Cloudy,200,2012-10-05 13:51:00
9:51 AM,82.9,71.1,67,30.09,10.0,South,11.5,-,N/A,,Partly Cloudy,190,2012-10-05 14:51:00
10:51 AM,86.0,71.1,61,30.09,10.0,South,12.7,-,N/A,,Partly Cloudy,170,2012-10-05 15:51:00
11:51 AM,88.0,70.0,55,30.08,10.0,SSE,11.5,-,N/A,,Scattered Clouds,150,2012-10-05 16:51:00
12:51 PM,90.0,68.0,48,30.06,10.0,SE,11.5,17.3,N/A,,Mostly Cloudy,140,2012-10-05 17:51:00
1:51 PM,91.0,68.0,47,30.03,10.0,Variable,6.9,16.1,N/A,,Scattered Clouds,0,2012-10-05 18:51:00
2:51 PM,91.0,68.0,47,30.00,10.0,South,11.5,18.4,N/A,,Scattered Clouds,170,2012-10-05 19:51:00
3:51 PM,91.0,66.9,45,29.98,10.0,SSE,11.5,-,N/A,,Scattered Clouds,160,2012-10-05 20:51:00
4:51 PM,89.1,68.0,50,29.97,10.0,SE,12.7,20.7,N/A,,Partly Cloudy,140,2012-10-05 21:51:00
5:51 PM,87.1,66.9,51,29.96,10.0,ESE,12.7,-,N/A,,Clear,120,2012-10-05 22:51:00
6:51 PM,82.9,66.9,58,29.97,10.0,SE,12.7,-,N/A,,Clear,130,2012-10-05 23:51:00
7:51 PM,80.1,68.0,67,29.97,10.0,SE,9.2,-,N/A,,Clear,140,2012-10-06 00:51:00
8:51 PM,77.0,68.0,74,29.98,10.0,SE,9.2,-,N/A,,Clear,130,2012-10-06 01:51:00
9:51 PM,75.9,66.9,74,29.99,10.0,SE,8.1,-,N/A,,Clear,140,2012-10-06 02:51:00
10:51 PM,75.0,66.9,76,29.99,10.0,SE,8.1,-,N/A,,Clear,140,2012-10-06 03:51:00
11:51 PM,73.0,66.9,81,29.98,10.0,SE,5.8,-,N/A,,Clear,140,2012-10-06 04:51:00